| time (UTC) | temp F | wind direction | speed knots | gust knots | rain 1hr in | rain 24hr in | rain mn in | humidity % | barometer mb |
| 20260504081532 | 51 | 207 | 0.0 | 0.9 | 0.00 | 0.00 | 0.00 | 39 | 1011.9 |
| 20260504044532 | 63 | 244 | 2.6 | 4.3 | 0.00 | 0.00 | 0.00 | 27 | 1012.2 |
| 20260504043032 | 64 | 267 | 1.7 | 3.5 | 0.00 | 0.00 | 0.00 | 25 | 1012.2 |
| 20260504041532 | 65 | 255 | 3.5 | 7.0 | 0.00 | 0.00 | 0.00 | 24 | 1012.4 |
| 20260504040032 | 65 | 318 | 2.6 | 5.2 | 0.00 | 0.00 | 0.00 | 22 | 1012.2 |
| 20260504034532 | 64 | 232 | 2.6 | 6.1 | 0.00 | 0.00 | 0.00 | 22 | 1012.5 |
| 20260504033032 | 61 | 233 | 1.7 | 3.5 | 0.00 | 0.00 | 0.00 | 30 | 1012.8 |
| 20260504031532 | 62 | 41 | 0.9 | 2.6 | 0.00 | 0.00 | 0.00 | 29 | 1013.0 |
| 20260504030032 | 62 | 247 | 0.0 | 1.7 | 0.00 | 0.00 | 0.00 | 28 | 1012.7 |
| 20260504024532 | 62 | 136 | 0.0 | 0.9 | 0.00 | 0.00 | 0.00 | 28 | 1012.7 |
| 20260504023032 | 62 | 149 | 0.0 | 0.9 | 0.00 | 0.00 | 0.00 | 29 | 1012.7 |
| 20260504021532 | 62 | 0 | 0.0 | 0.0 | 0.00 | 0.00 | 0.00 | 29 | 1012.7 |
| 20260504020032 | 63 | 113 | 0.0 | 0.0 | 0.00 | 0.00 | 0.00 | 28 | 1012.7 |
| 20260504014532 | 64 | 47 | 0.9 | 1.7 | 0.00 | 0.00 | 0.00 | 27 | 1012.7 |
| 20260504013032 | 65 | 41 | 1.7 | 3.5 | 0.00 | 0.00 | 0.00 | 25 | 1012.6 |
| 20260504011532 | 66 | 51 | 0.9 | 1.7 | 0.00 | 0.00 | 0.00 | 24 | 1012.6 |
| 20260504010032 | 66 | 29 | 1.7 | 4.3 | 0.00 | 0.00 | 0.00 | 24 | 1012.8 |
| 20260504004532 | 66 | 305 | 3.5 | 7.0 | 0.00 | 0.00 | 0.00 | 24 | 1013.1 |
| 20260504003032 | 67 | 329 | 3.5 | 5.2 | 0.00 | 0.00 | 0.00 | 23 | 1013.0 |
| 20260504001532 | 67 | 352 | 2.6 | 3.5 | 0.00 | 0.00 | 0.00 | 22 | 1012.4 |
| 20260504000032 | 67 | 309 | 4.3 | 7.8 | 0.00 | 0.00 | 0.00 | 23 | 1012.4 |
| 20260503234532 | 68 | 332 | 4.3 | 7.0 | 0.00 | 0.00 | 0.00 | 23 | 1012.4 |
| 20260503233032 | 69 | 324 | 4.3 | 8.7 | 0.00 | 0.00 | 0.00 | 20 | 1012.5 |
| 20260503231532 | 70 | 326 | 5.2 | 7.8 | 0.00 | 0.00 | 0.00 | 20 | 1012.4 |
| 20260503230032 | 70 | 300 | 3.5 | 5.2 | 0.00 | 0.00 | 0.00 | 18 | 1012.2 |
| 20260503224532 | 71 | 341 | 5.2 | 9.6 | 0.00 | 0.00 | 0.00 | 18 | 1012.2 |
| 20260503223032 | 71 | 32 | 1.7 | 4.3 | 0.00 | 0.00 | 0.00 | 18 | 1012.4 |
| 20260503221532 | 71 | 332 | 4.3 | 9.6 | 0.00 | 0.00 | 0.00 | 18 | 1012.5 |
| 20260503220032 | 71 | 6 | 3.5 | 6.1 | 0.00 | 0.00 | 0.00 | 17 | 1012.6 |
| 20260503214532 | 72 | 313 | 5.2 | 7.8 | 0.00 | 0.00 | 0.00 | 16 | 1012.8 |
| 20260503213032 | 73 | 356 | 3.5 | 5.2 | 0.00 | 0.00 | 0.00 | 16 | 1012.8 |
| 20260503211532 | 73 | 293 | 0.9 | 3.5 | 0.00 | 0.00 | 0.00 | 15 | 1013.1 |
| 20260503210032 | 74 | 36 | 2.6 | 4.3 | 0.00 | 0.00 | 0.00 | 15 | 1013.1 |
| 20260503204532 | 74 | 31 | 1.7 | 4.3 | 0.00 | 0.00 | 0.00 | 15 | 1013.4 |
| 20260503203032 | 75 | 53 | 1.7 | 3.5 | 0.00 | 0.00 | 0.00 | 15 | 1013.5 |
| 20260503201532 | 73 | 160 | 1.7 | 3.5 | 0.00 | 0.00 | 0.00 | 16 | 1013.7 |
| 20260503200032 | 73 | 347 | 2.6 | 3.5 | 0.00 | 0.00 | 0.00 | 15 | 1014.1 |
| 20260503194532 | 72 | 284 | 0.9 | 3.5 | 0.00 | 0.00 | 0.00 | 16 | 1014.3 |
| 20260503193032 | 72 | 50 | 2.6 | 5.2 | 0.00 | 0.00 | 0.00 | 16 | 1014.5 |
| 20260503191532 | 71 | 280 | 1.7 | 4.3 | 0.00 | 0.00 | 0.00 | 17 | 1014.6 |
| 20260503190032 | 70 | 145 | 1.7 | 3.5 | 0.00 | 0.00 | 0.00 | 18 | 1014.9 |